Time,TemperatureF,DewpointF,PressureIn,WindDirection,WindDirectionDegrees,WindSpeedMPH,WindSpeedGustMPH,Humidity,HourlyPrecipIn,Conditions,Clouds,dailyrainin,SoftwareType,DateUTC
2013-03-02 00:00:00,37.8,23.5,29.99,East,90,0.0,0.0,56,0.00,,---,0.00,VWS V14.01,2013-03-02 07:00:00,
2013-03-02 00:05:00,37.6,23.3,29.99,NE,55,3.6,3.6,56,0.00,,---,0.00,VWS V14.01,2013-03-02 07:05:00,
2013-03-02 00:10:00,38.5,23.7,29.99,ENE,73,2.7,3.6,55,0.00,,---,0.00,VWS V14.01,2013-03-02 07:10:00,
2013-03-02 00:15:00,38.5,23.7,29.99,NNE,27,4.9,4.9,55,0.00,,---,0.00,VWS V14.01,2013-03-02 07:15:00,
2013-03-02 00:20:00,38.7,23.5,29.99,East,79,0.0,3.1,54,0.00,,---,0.00,VWS V14.01,2013-03-02 07:20:00,
2013-03-02 00:25:00,38.5,23.3,29.99,NE,50,3.1,4.0,54,0.00,,---,0.00,VWS V14.01,2013-03-02 07:25:00,
2013-03-02 00:30:00,38.1,23.0,29.99,NNE,32,0.0,0.0,54,0.00,,---,0.00,VWS V14.01,2013-03-02 07:30:00,
2013-03-02 00:35:00,38.5,23.7,29.99,NW,319,0.0,0.0,55,0.00,,---,0.00,VWS V14.01,2013-03-02 07:35:00,
2013-03-02 00:40:00,38.5,23.3,29.99,NNW,331,0.0,0.0,54,0.00,,---,0.00,VWS V14.01,2013-03-02 07:40:00,
2013-03-02 00:45:00,38.1,23.0,29.99,NNW,331,0.0,0.0,54,0.00,,---,0.00,VWS V14.01,2013-03-02 07:45:00,
2013-03-02 00:50:00,37.8,23.1,29.99,NNW,331,0.0,0.0,55,0.00,,---,0.00,VWS V14.01,2013-03-02 07:50:00,
2013-03-02 00:55:00,37.4,23.1,29.99,NNW,331,0.0,0.0,56,0.00,,---,0.00,VWS V14.01,2013-03-02 07:55:00,
2013-03-02 01:00:00,36.9,22.6,29.99,NW,321,0.0,0.0,56,0.00,,---,0.00,VWS V14.01,2013-03-02 08:00:00,
2013-03-02 01:05:00,36.5,23.1,29.99,NNW,329,0.0,0.0,58,0.00,,---,0.00,VWS V14.01,2013-03-02 08:05:00,
2013-03-02 01:10:00,36.5,23.1,29.99,NNW,329,0.0,0.0,58,0.00,,---,0.00,VWS V14.01,2013-03-02 08:10:00,
2013-03-02 01:15:00,36.7,23.3,29.99,NNW,329,0.0,0.0,58,0.00,,---,0.00,VWS V14.01,2013-03-02 08:15:00,
2013-03-02 01:20:00,36.9,23.5,29.99,NNW,329,0.0,0.0,58,0.00,,---,0.00,VWS V14.01,2013-03-02 08:20:00,
2013-03-02 01:25:00,36.9,23.5,29.99,WNW,285,2.7,2.7,58,0.00,,---,0.00,VWS V14.01,2013-03-02 08:25:00,
2013-03-02 01:30:00,36.9,23.1,29.99,West,275,0.0,0.0,57,0.00,,---,0.00,VWS V14.01,2013-03-02 08:30:00,
2013-03-02 01:35:00,36.7,22.9,29.99,WSW,248,3.1,3.6,57,0.00,,---,0.00,VWS V14.01,2013-03-02 08:35:00,
2013-03-02 01:40:00,36.1,22.4,29.99,WSW,248,0.0,0.0,57,0.00,,---,0.00,VWS V14.01,2013-03-02 08:40:00,
2013-03-02 01:45:00,36.3,23.0,29.99,WNW,286,0.0,0.0,58,0.00,,---,0.00,VWS V14.01,2013-03-02 08:45:00,
2013-03-02 01:50:00,36.3,23.0,29.99,SE,146,0.0,0.0,58,0.00,,---,0.00,VWS V14.01,2013-03-02 08:50:00,
2013-03-02 01:55:00,36.0,22.6,29.99,ENE,66,0.0,0.0,58,0.00,,---,0.00,VWS V14.01,2013-03-02 08:55:00,
2013-03-02 02:00:00,35.6,22.7,29.99,WNW,287,0.0,0.0,59,0.00,,---,0.00,VWS V14.01,2013-03-02 09:00:00,
2013-03-02 02:05:00,35.8,22.9,29.99,WSW,244,6.3,6.3,59,0.00,,---,0.00,VWS V14.01,2013-03-02 09:05:00,
2013-03-02 02:10:00,35.8,22.5,29.99,NW,316,4.9,4.9,58,0.00,,---,0.00,VWS V14.01,2013-03-02 09:10:00,
2013-03-02 02:15:00,36.0,22.6,29.99,West,270,0.0,0.0,58,0.00,,---,0.00,VWS V14.01,2013-03-02 09:15:00,
2013-03-02 02:20:00,36.0,22.6,29.99,West,274,0.0,0.0,58,0.00,,---,0.00,VWS V14.01,2013-03-02 09:20:00,
2013-03-02 02:25:00,35.4,22.1,29.99,West,273,0.0,0.0,58,0.00,,---,0.00,VWS V14.01,2013-03-02 09:25:00,
2013-03-02 02:30:00,34.7,21.9,29.99,WNW,295,0.0,0.0,59,0.00,,---,0.00,VWS V14.01,2013-03-02 09:30:00,
2013-03-02 02:35:00,34.3,22.7,29.99,SE,126,7.6,7.6,62,0.00,,---,0.00,VWS V14.01,2013-03-02 09:35:00,
2013-03-02 02:40:00,34.3,23.1,29.99,WNW,283,0.0,0.0,63,0.00,,---,0.00,VWS V14.01,2013-03-02 09:40:00,
2013-03-02 02:45:00,35.8,22.9,29.99,ESE,111,4.0,5.4,59,0.00,,---,0.00,VWS V14.01,2013-03-02 09:45:00,
2013-03-02 02:50:00,36.5,23.1,29.99,West,276,5.8,5.8,58,0.00,,---,0.00,VWS V14.01,2013-03-02 09:50:00,
2013-03-02 02:55:00,37.9,22.4,29.99,SE,142,4.9,5.8,53,0.00,,---,0.00,VWS V14.01,2013-03-02 09:55:00,
2013-03-02 03:00:00,38.5,22.4,29.99,SW,219,2.7,3.1,52,0.00,,---,0.00,VWS V14.01,2013-03-02 10:00:00,
2013-03-02 03:05:00,38.1,21.6,29.99,WNW,295,2.7,2.7,51,0.00,,---,0.00,VWS V14.01,2013-03-02 10:05:00,
2013-03-02 03:10:00,39.6,22.5,29.99,ESE,113,6.7,6.7,50,0.00,,---,0.00,VWS V14.01,2013-03-02 10:10:00,
2013-03-02 03:15:00,39.4,21.3,29.99,WSW,243,2.7,2.7,48,0.00,,---,0.00,VWS V14.01,2013-03-02 10:15:00,
2013-03-02 03:20:00,39.2,21.7,29.96,ESE,106,4.9,5.4,49,0.00,,---,0.00,VWS V14.01,2013-03-02 10:20:00,
2013-03-02 03:25:00,39.4,21.8,29.96,WNW,293,2.7,2.7,49,0.00,,---,0.00,VWS V14.01,2013-03-02 10:25:00,
2013-03-02 03:30:00,38.7,21.2,29.96,WNW,293,0.0,0.0,49,0.00,,---,0.00,VWS V14.01,2013-03-02 10:30:00,
2013-03-02 03:42:00,38.7,22.1,29.96,NW,305,2.2,4.0,51,0.00,,---,0.00,VWS V14.01,2013-03-02 10:42:00,
2013-03-02 03:47:00,38.1,21.6,29.96,East,92,2.2,2.2,51,0.00,,---,0.00,VWS V14.01,2013-03-02 10:47:00,
2013-03-02 03:52:00,37.4,20.9,29.96,West,262,0.0,0.0,51,0.00,,---,0.00,VWS V14.01,2013-03-02 10:52:00,
2013-03-02 03:57:00,37.0,21.1,29.96,ENE,75,5.4,5.4,52,0.00,,---,0.00,VWS V14.01,2013-03-02 10:57:00,
2013-03-02 04:02:00,37.4,21.4,29.96,WSW,238,0.0,0.0,52,0.00,,---,0.00,VWS V14.01,2013-03-02 11:02:00,
2013-03-02 04:07:00,37.4,21.4,29.96,SSE,154,0.0,2.7,52,0.00,,---,0.00,VWS V14.01,2013-03-02 11:07:00,
2013-03-02 04:12:00,37.0,21.1,29.96,SSE,164,0.0,0.0,52,0.00,,---,0.00,VWS V14.01,2013-03-02 11:12:00,
2013-03-02 04:17:00,37.4,21.9,29.96,SE,129,2.2,3.6,53,0.00,,---,0.00,VWS V14.01,2013-03-02 11:17:00,
2013-03-02 04:22:00,38.1,21.6,29.96,SE,140,4.0,8.1,51,0.00,,---,0.00,VWS V14.01,2013-03-02 11:22:00,
2013-03-02 04:27:00,38.1,22.1,29.96,SE,143,2.7,5.8,52,0.00,,---,0.00,VWS V14.01,2013-03-02 11:27:00,
2013-03-02 04:32:00,38.1,21.6,29.96,SSW,201,0.0,2.7,51,0.00,,---,0.00,VWS V14.01,2013-03-02 11:32:00,
2013-03-02 04:37:00,36.9,20.9,29.96,West,273,0.0,0.0,52,0.00,,---,0.00,VWS V14.01,2013-03-02 11:37:00,
2013-03-02 04:42:00,35.8,20.3,29.96,WSW,253,0.0,0.0,53,0.00,,---,0.00,VWS V14.01,2013-03-02 11:42:00,
2013-03-02 04:47:00,35.4,21.3,29.96,SW,228,0.0,0.0,56,0.00,,---,0.00,VWS V14.01,2013-03-02 11:47:00,
2013-03-02 04:52:00,35.2,21.1,29.96,SW,228,0.0,0.0,56,0.00,,---,0.00,VWS V14.01,2013-03-02 11:52:00,
2013-03-02 04:57:00,34.9,21.2,29.96,WNW,288,0.0,0.0,57,0.00,,---,0.00,VWS V14.01,2013-03-02 11:57:00,
2013-03-02 05:02:00,34.5,21.7,29.96,WNW,288,0.0,0.0,59,0.00,,---,0.00,VWS V14.01,2013-03-02 12:02:00,
2013-03-02 05:07:00,34.2,21.3,29.93,WNW,288,0.0,0.0,59,0.00,,---,0.00,VWS V14.01,2013-03-02 12:07:00,
2013-03-02 05:12:00,33.8,21.0,29.93,WNW,288,0.0,0.0,59,0.00,,---,0.00,VWS V14.01,2013-03-02 12:12:00,
2013-03-02 05:17:00,33.6,22.4,29.93,WNW,288,0.0,0.0,63,0.00,,---,0.00,VWS V14.01,2013-03-02 12:17:00,
2013-03-02 05:22:00,33.6,22.0,29.96,WNW,295,3.6,3.6,62,0.00,,---,0.00,VWS V14.01,2013-03-02 12:22:00,
2013-03-02 05:27:00,33.6,22.4,29.96,WNW,292,5.4,5.4,63,0.00,,---,0.00,VWS V14.01,2013-03-02 12:27:00,
2013-03-02 05:32:00,33.6,22.0,29.96,SE,146,0.0,0.0,62,0.00,,---,0.00,VWS V14.01,2013-03-02 12:32:00,
2013-03-02 05:36:00,33.6,22.0,29.96,SSW,198,0.0,2.7,62,0.00,,---,0.00,VWS V14.01,2013-03-02 12:36:00,
2013-03-02 05:41:00,34.2,22.1,29.96,SE,141,0.0,0.0,61,0.00,,---,0.00,VWS V14.01,2013-03-02 12:41:00,
2013-03-02 05:46:00,34.5,22.1,29.96,SSE,153,0.0,0.0,60,0.00,,---,0.00,VWS V14.01,2013-03-02 12:46:00,
2013-03-02 05:51:00,35.2,22.0,29.96,WNW,297,2.7,4.0,58,0.00,,---,0.00,VWS V14.01,2013-03-02 12:51:00,
2013-03-02 05:56:00,35.4,21.7,29.96,NW,324,0.0,0.0,57,0.00,,---,0.00,VWS V14.01,2013-03-02 12:56:00,
2013-03-02 06:01:00,34.0,20.0,29.96,West,271,0.0,0.0,56,0.00,,---,0.00,VWS V14.01,2013-03-02 13:01:00,
2013-03-02 06:06:00,33.3,20.9,29.96,SSW,205,0.0,2.7,60,0.00,,---,0.00,VWS V14.01,2013-03-02 13:06:00,
2013-03-02 06:11:00,33.1,21.1,29.96,SSW,205,0.0,0.0,61,0.00,,---,0.00,VWS V14.01,2013-03-02 13:11:00,
2013-03-02 06:16:00,32.7,21.5,29.96,SW,217,0.0,0.0,63,0.00,,---,0.00,VWS V14.01,2013-03-02 13:16:00,
2013-03-02 06:21:00,32.4,21.2,29.96,SW,221,0.0,0.0,63,0.00,,---,0.00,VWS V14.01,2013-03-02 13:21:00,
2013-03-02 06:26:00,32.0,21.6,29.96,SSE,167,0.0,0.0,65,0.00,,---,0.00,VWS V14.01,2013-03-02 13:26:00,
2013-03-02 06:31:00,31.6,21.6,29.96,SSE,167,0.0,0.0,66,0.00,,---,0.00,VWS V14.01,2013-03-02 13:31:00,
2013-03-02 06:36:00,31.6,21.6,29.96,WNW,287,0.0,2.2,66,0.00,,---,0.00,VWS V14.01,2013-03-02 13:36:00,
2013-03-02 06:41:00,31.6,22.0,29.96,WNW,287,0.0,0.0,67,0.00,,---,0.00,VWS V14.01,2013-03-02 13:41:00,
2013-03-02 06:46:00,31.6,22.0,29.96,WNW,287,0.0,0.0,67,0.00,,---,0.00,VWS V14.01,2013-03-02 13:46:00,
2013-03-02 06:51:00,31.5,21.4,29.96,West,266,0.0,0.0,66,0.00,,---,0.00,VWS V14.01,2013-03-02 13:51:00,
2013-03-02 06:56:00,31.6,22.0,29.96,WSW,252,0.0,0.0,67,0.00,,---,0.00,VWS V14.01,2013-03-02 13:56:00,
2013-03-02 07:01:00,31.3,21.6,29.96,WNW,297,0.0,0.0,67,0.00,,---,0.00,VWS V14.01,2013-03-02 14:01:00,
2013-03-02 07:06:00,31.1,21.4,29.96,WNW,296,0.0,0.0,67,0.00,,---,0.00,VWS V14.01,2013-03-02 14:06:00,
2013-03-02 07:11:00,31.1,21.8,29.96,WSW,253,0.0,3.6,68,0.00,,---,0.00,VWS V14.01,2013-03-02 14:11:00,
2013-03-02 07:16:00,32.2,23.2,29.96,SSW,212,0.0,2.2,69,0.00,,---,0.00,VWS V14.01,2013-03-02 14:16:00,
2013-03-02 07:21:00,33.8,24.0,29.96,SE,141,3.6,3.6,67,0.00,,---,0.00,VWS V14.01,2013-03-02 14:21:00,
2013-03-02 07:26:00,33.4,21.5,29.96,SW,229,0.0,3.1,61,0.00,,---,0.00,VWS V14.01,2013-03-02 14:26:00,
2013-03-02 07:31:00,32.5,20.6,29.96,SW,221,0.0,0.0,61,0.00,,---,0.00,VWS V14.01,2013-03-02 14:31:00,
2013-03-02 07:36:00,32.2,20.6,29.96,SW,225,0.0,0.0,62,0.00,,---,0.00,VWS V14.01,2013-03-02 14:36:00,
2013-03-02 07:41:00,32.4,21.6,29.96,SW,225,0.0,0.0,64,0.00,,---,0.00,VWS V14.01,2013-03-02 14:41:00,
2013-03-02 07:46:00,32.4,21.9,29.96,WNW,285,0.0,0.0,65,0.00,,---,0.00,VWS V14.01,2013-03-02 14:46:00,
2013-03-02 07:51:00,32.5,22.1,29.93,West,280,0.0,0.0,65,0.00,,---,0.00,VWS V14.01,2013-03-02 14:51:00,
2013-03-02 07:56:00,32.7,22.3,29.93,WNW,292,3.1,3.1,65,0.00,,---,0.00,VWS V14.01,2013-03-02 14:56:00,
2013-03-02 08:01:00,33.3,22.8,29.93,SSE,167,0.0,4.9,65,0.00,,---,0.00,VWS V14.01,2013-03-02 15:01:00,
2013-03-02 08:06:00,33.8,22.9,29.93,WNW,299,0.0,3.6,64,0.00,,---,0.00,VWS V14.01,2013-03-02 15:06:00,
2013-03-02 08:11:00,34.3,23.4,29.93,NW,304,0.0,0.0,64,0.00,,---,0.00,VWS V14.01,2013-03-02 15:11:00,
2013-03-02 08:16:00,35.6,23.9,29.93,NW,306,2.7,2.7,62,0.00,,---,0.00,VWS V14.01,2013-03-02 15:16:00,
2013-03-02 08:21:00,36.1,23.2,29.93,WSW,241,0.0,2.7,59,0.00,,---,0.00,VWS V14.01,2013-03-02 15:21:00,
2013-03-02 08:26:00,37.2,22.6,29.93,East,98,3.1,8.3,55,0.00,,---,0.00,VWS V14.01,2013-03-02 15:26:00,
2013-03-02 08:31:00,38.5,22.4,29.93,WNW,302,4.0,5.8,52,0.00,,---,0.00,VWS V14.01,2013-03-02 15:31:00,
2013-03-02 08:36:00,38.7,22.6,29.93,WNW,297,0.0,0.0,52,0.00,,---,0.00,VWS V14.01,2013-03-02 15:36:00,
2013-03-02 08:41:00,38.8,22.7,29.93,WNW,291,0.0,0.0,52,0.00,,---,0.00,VWS V14.01,2013-03-02 15:41:00,
2013-03-02 08:46:00,39.0,22.4,29.93,West,276,0.0,0.0,51,0.00,,---,0.00,VWS V14.01,2013-03-02 15:46:00,
2013-03-02 08:51:00,39.9,22.3,29.91,SE,136,5.8,6.3,49,0.00,,---,0.00,VWS V14.01,2013-03-02 15:51:00,
2013-03-02 08:56:00,40.5,23.3,29.91,WNW,292,0.0,2.2,50,0.00,,---,0.00,VWS V14.01,2013-03-02 15:56:00,
2013-03-02 09:01:00,42.1,22.3,29.91,SE,140,4.9,13.6,45,0.00,,---,0.00,VWS V14.01,2013-03-02 16:01:00,
2013-03-02 09:06:00,42.4,21.5,29.93,SSE,147,8.7,13.2,43,0.00,,---,0.00,VWS V14.01,2013-03-02 16:06:00,
2013-03-02 09:11:00,42.8,21.9,29.93,SSE,156,12.8,12.8,43,0.00,,---,0.00,VWS V14.01,2013-03-02 16:11:00,
2013-03-02 09:16:00,43.3,21.2,29.93,SE,138,8.3,8.3,41,0.00,,---,0.00,VWS V14.01,2013-03-02 16:16:00,
2013-03-02 09:21:00,43.3,21.2,29.93,ESE,123,7.6,11.0,41,0.00,,---,0.00,VWS V14.01,2013-03-02 16:21:00,
2013-03-02 09:26:00,43.3,21.8,29.93,SE,145,12.8,12.8,42,0.00,,---,0.00,VWS V14.01,2013-03-02 16:26:00,
2013-03-02 09:31:00,44.1,21.9,29.93,SE,134,11.0,13.2,41,0.00,,---,0.00,VWS V14.01,2013-03-02 16:31:00,
2013-03-02 09:36:00,43.3,21.2,29.91,SE,130,16.8,16.8,41,0.00,,---,0.00,VWS V14.01,2013-03-02 16:36:00,
2013-03-02 09:41:00,43.2,21.1,29.91,SE,139,10.5,12.8,41,0.00,,---,0.00,VWS V14.01,2013-03-02 16:41:00,
2013-03-02 09:46:00,43.7,21.6,29.91,SSE,160,5.4,11.4,41,0.00,,---,0.00,VWS V14.01,2013-03-02 16:46:00,
2013-03-02 09:51:00,43.9,21.7,29.91,SE,130,15.9,15.9,41,0.00,,---,0.00,VWS V14.01,2013-03-02 16:51:00,
2013-03-02 09:56:00,44.8,22.0,29.91,SE,143,6.3,8.7,40,0.00,,---,0.00,VWS V14.01,2013-03-02 16:56:00,
2013-03-02 10:01:00,45.1,22.3,29.91,SE,125,12.3,12.3,40,0.00,,---,0.00,VWS V14.01,2013-03-02 17:01:00,
2013-03-02 10:06:00,45.9,22.3,29.91,SE,128,10.1,10.1,39,0.00,,---,0.00,VWS V14.01,2013-03-02 17:06:00,
2013-03-02 10:11:00,47.1,22.8,29.91,SSE,157,3.6,5.4,38,0.00,,---,0.00,VWS V14.01,2013-03-02 17:11:00,
2013-03-02 10:16:00,47.1,22.8,29.91,SSE,150,10.5,14.5,38,0.00,,---,0.00,VWS V14.01,2013-03-02 17:16:00,
2013-03-02 10:21:00,47.1,22.8,29.91,SSE,152,13.6,13.6,38,0.00,,---,0.00,VWS V14.01,2013-03-02 17:21:00,
2013-03-02 10:26:00,47.1,22.8,29.91,SSE,151,10.5,11.0,38,0.00,,---,0.00,VWS V14.01,2013-03-02 17:26:00,
2013-03-02 10:31:00,47.1,22.8,29.91,ESE,117,11.0,12.8,38,0.00,,---,0.00,VWS V14.01,2013-03-02 17:31:00,
2013-03-02 10:36:00,46.6,22.4,29.91,SE,138,10.5,15.0,38,0.00,,---,0.00,VWS V14.01,2013-03-02 17:36:00,
2013-03-02 10:41:00,47.8,23.5,29.91,SE,146,8.7,11.0,38,0.00,,---,0.00,VWS V14.01,2013-03-02 17:41:00,
2013-03-02 10:46:00,48.7,23.6,29.91,SE,140,6.3,10.5,37,0.00,,---,0.00,VWS V14.01,2013-03-02 17:46:00,
2013-03-02 10:51:00,48.9,23.8,29.91,SSE,161,5.8,8.3,37,0.00,,---,0.00,VWS V14.01,2013-03-02 17:51:00,
2013-03-02 10:56:00,48.6,23.5,29.91,SSE,155,10.1,14.1,37,0.00,,---,0.00,VWS V14.01,2013-03-02 17:56:00,
2013-03-02 11:01:00,49.5,24.3,29.91,SE,128,5.8,8.7,37,0.00,,---,0.00,VWS V14.01,2013-03-02 18:01:00,
2013-03-02 11:06:00,49.6,24.5,29.88,SSE,152,8.7,13.2,37,0.00,,---,0.00,VWS V14.01,2013-03-02 18:06:00,
2013-03-02 11:11:00,50.2,24.3,29.88,SSE,163,7.6,11.0,36,0.00,,---,0.00,VWS V14.01,2013-03-02 18:11:00,
2013-03-02 11:16:00,50.2,24.3,29.88,SE,127,8.7,11.0,36,0.00,,---,0.00,VWS V14.01,2013-03-02 18:16:00,
2013-03-02 11:21:00,50.9,24.9,29.88,SE,130,4.9,10.1,36,0.00,,---,0.00,VWS V14.01,2013-03-02 18:21:00,
2013-03-02 11:26:00,50.9,24.2,29.88,SE,124,6.3,6.3,35,0.00,,---,0.00,VWS V14.01,2013-03-02 18:26:00,
2013-03-02 11:31:00,51.1,24.4,29.88,SSE,158,4.0,10.5,35,0.00,,---,0.00,VWS V14.01,2013-03-02 18:31:00,
2013-03-02 11:36:00,51.4,24.0,29.88,SE,146,3.6,8.7,34,0.00,,---,0.00,VWS V14.01,2013-03-02 18:36:00,
2013-03-02 11:41:00,52.3,24.8,29.88,SSE,155,6.3,10.1,34,0.00,,---,0.00,VWS V14.01,2013-03-02 18:41:00,
2013-03-02 11:46:00,51.6,24.2,29.88,East,95,12.8,12.8,34,0.00,,---,0.00,VWS V14.01,2013-03-02 18:46:00,
2013-03-02 11:51:00,51.6,24.2,29.88,ESE,105,0.0,5.8,34,0.00,,---,0.00,VWS V14.01,2013-03-02 18:51:00,
2013-03-02 11:56:00,51.1,23.7,29.88,SE,128,5.4,8.3,34,0.00,,---,0.00,VWS V14.01,2013-03-02 18:56:00,
2013-03-02 12:01:00,52.0,23.8,29.88,South,169,8.7,11.0,33,0.00,,---,0.00,VWS V14.01,2013-03-02 19:01:00,
2013-03-02 12:06:00,52.5,24.3,29.88,SSE,147,10.1,11.9,33,0.00,,---,0.00,VWS V14.01,2013-03-02 19:06:00,
2013-03-02 12:11:00,52.9,24.6,29.88,SSE,162,6.3,6.3,33,0.00,,---,0.00,VWS V14.01,2013-03-02 19:11:00,
2013-03-02 12:16:00,53.4,24.3,29.88,SE,140,8.7,10.5,32,0.00,,---,0.00,VWS V14.01,2013-03-02 19:16:00,
2013-03-02 12:21:00,53.8,23.9,29.85,SE,130,8.1,8.1,31,0.00,,---,0.00,VWS V14.01,2013-03-02 19:21:00,
2013-03-02 12:26:00,53.4,23.6,29.85,SE,128,7.2,8.3,31,0.00,,---,0.00,VWS V14.01,2013-03-02 19:26:00,
2013-03-02 12:31:00,52.9,23.1,29.85,SSE,160,6.3,8.7,31,0.00,,---,0.00,VWS V14.01,2013-03-02 19:31:00,
2013-03-02 12:36:00,53.8,23.1,29.85,SE,132,2.2,4.0,30,0.00,,---,0.00,VWS V14.01,2013-03-02 19:36:00,
2013-03-02 12:41:00,54.7,23.9,29.85,ESE,113,6.3,7.6,30,0.00,,---,0.00,VWS V14.01,2013-03-02 19:41:00,
2013-03-02 12:46:00,54.3,23.6,29.85,SSE,166,6.3,10.5,30,0.00,,---,0.00,VWS V14.01,2013-03-02 19:46:00,
2013-03-02 12:51:00,53.4,22.8,29.82,SE,143,10.5,11.0,30,0.00,,---,0.00,VWS V14.01,2013-03-02 19:51:00,
2013-03-02 12:56:00,52.7,22.9,29.82,SSE,155,10.1,11.9,31,0.00,,---,0.00,VWS V14.01,2013-03-02 19:56:00,
2013-03-02 13:01:00,52.9,23.1,29.82,SSE,149,12.8,12.8,31,0.00,,---,0.00,VWS V14.01,2013-03-02 20:01:00,
2013-03-02 13:06:00,53.2,22.6,29.85,SE,140,8.1,10.5,30,0.00,,---,0.00,VWS V14.01,2013-03-02 20:06:00,
2013-03-02 13:11:00,53.2,22.6,29.85,SSE,149,11.9,11.9,30,0.00,,---,0.00,VWS V14.01,2013-03-02 20:11:00,
2013-03-02 13:16:00,53.1,22.5,29.85,SE,127,8.1,10.1,30,0.00,,---,0.00,VWS V14.01,2013-03-02 20:16:00,
2013-03-02 13:21:00,53.8,22.3,29.82,SSE,163,5.4,9.2,29,0.00,,---,0.00,VWS V14.01,2013-03-02 20:21:00,
2013-03-02 13:26:00,54.1,22.6,29.82,SW,219,3.1,6.7,29,0.00,,---,0.00,VWS V14.01,2013-03-02 20:26:00,
2013-03-02 13:31:00,54.3,21.9,29.82,West,260,0.0,2.7,28,0.00,,---,0.00,VWS V14.01,2013-03-02 20:31:00,
2013-03-02 13:36:00,55.0,21.7,29.82,SSE,149,3.1,3.1,27,0.00,,---,0.00,VWS V14.01,2013-03-02 20:36:00,
2013-03-02 13:41:00,55.4,21.1,29.82,SSW,201,2.7,5.4,26,0.00,,---,0.00,VWS V14.01,2013-03-02 20:41:00,
2013-03-02 13:46:00,55.4,21.1,29.82,WNW,302,3.1,3.1,26,0.00,,---,0.00,VWS V14.01,2013-03-02 20:46:00,
2013-03-02 13:51:00,55.6,21.3,29.82,West,270,7.6,7.6,26,0.00,,---,0.00,VWS V14.01,2013-03-02 20:51:00,
2013-03-02 13:56:00,55.6,21.3,29.82,WNW,285,9.6,9.6,26,0.00,,---,0.00,VWS V14.01,2013-03-02 20:56:00,
2013-03-02 14:01:00,55.6,20.3,29.82,WSW,248,6.3,6.3,25,0.00,,---,0.00,VWS V14.01,2013-03-02 21:01:00,
2013-03-02 14:06:00,55.4,20.2,29.82,NW,310,5.8,13.2,25,0.00,,---,0.00,VWS V14.01,2013-03-02 21:06:00,
2013-03-02 14:11:00,54.9,20.6,29.82,WNW,287,5.4,8.7,26,0.00,,---,0.00,VWS V14.01,2013-03-02 21:11:00,
2013-03-02 14:16:00,54.5,20.3,29.82,NW,316,5.8,10.5,26,0.00,,---,0.00,VWS V14.01,2013-03-02 21:16:00,
2013-03-02 14:21:00,54.1,20.9,29.79,WSW,238,5.4,5.8,27,0.00,,---,0.00,VWS V14.01,2013-03-02 21:21:00,
2013-03-02 14:26:00,54.3,20.2,29.79,South,178,2.7,8.1,26,0.00,,---,0.00,VWS V14.01,2013-03-02 21:26:00,
2013-03-02 14:31:00,54.3,20.2,29.79,WSW,242,5.8,5.8,26,0.00,,---,0.00,VWS V14.01,2013-03-02 21:31:00,
2013-03-02 14:36:00,54.1,20.9,29.82,SE,124,5.4,5.8,27,0.00,,---,0.00,VWS V14.01,2013-03-02 21:36:00,
2013-03-02 14:41:00,54.1,20.9,29.82,SE,132,4.0,4.9,27,0.00,,---,0.00,VWS V14.01,2013-03-02 21:41:00,
2013-03-02 14:46:00,54.1,20.9,29.82,SSE,147,3.1,3.1,27,0.00,,---,0.00,VWS V14.01,2013-03-02 21:46:00,
2013-03-02 14:51:00,54.1,20.9,29.82,WNW,292,5.8,5.8,27,0.00,,---,0.00,VWS V14.01,2013-03-02 21:51:00,
2013-03-02 14:56:00,54.1,20.0,29.82,NW,305,0.0,3.1,26,0.00,,---,0.00,VWS V14.01,2013-03-02 21:56:00,
2013-03-02 15:01:00,54.3,20.2,29.82,NW,322,0.0,0.0,26,0.00,,---,0.00,VWS V14.01,2013-03-02 22:01:00,
2013-03-02 15:06:00,54.7,20.5,29.82,NW,322,0.0,0.0,26,0.00,,---,0.00,VWS V14.01,2013-03-02 22:06:00,
2013-03-02 15:11:00,55.2,21.0,29.82,SSE,168,0.0,0.0,26,0.00,,---,0.00,VWS V14.01,2013-03-02 22:11:00,
2013-03-02 15:16:00,55.4,21.1,29.82,SSW,203,0.0,0.0,26,0.00,,---,0.00,VWS V14.01,2013-03-02 22:16:00,
2013-03-02 15:21:00,55.6,21.3,29.82,South,186,0.0,0.0,26,0.00,,---,0.00,VWS V14.01,2013-03-02 22:21:00,
2013-03-02 15:26:00,55.4,21.1,29.82,West,274,0.0,2.7,26,0.00,,---,0.00,VWS V14.01,2013-03-02 22:26:00,
2013-03-02 15:31:00,54.9,20.6,29.82,WNW,297,0.0,3.1,26,0.00,,---,0.00,VWS V14.01,2013-03-02 22:31:00,
2013-03-02 15:36:00,54.5,20.3,29.79,NW,310,0.0,2.2,26,0.00,,---,0.00,VWS V14.01,2013-03-02 22:36:00,
2013-03-02 15:41:00,54.7,20.5,29.79,NE,35,4.0,4.0,26,0.00,,---,0.00,VWS V14.01,2013-03-02 22:41:00,
2013-03-02 15:46:00,53.8,24.6,29.79,NNE,12,0.0,5.4,32,0.00,,---,0.00,VWS V14.01,2013-03-02 22:46:00,
2013-03-02 15:51:00,52.7,25.1,29.79,North,11,3.6,3.6,34,0.00,,---,0.00,VWS V14.01,2013-03-02 22:51:00,
2013-03-02 15:56:00,51.6,25.6,29.79,NE,50,2.2,4.0,36,0.00,,---,0.00,VWS V14.01,2013-03-02 22:56:00,
2013-03-02 16:01:00,51.1,25.1,29.79,NE,38,0.0,0.0,36,0.00,,---,0.00,VWS V14.01,2013-03-02 23:01:00,
2013-03-02 16:06:00,50.4,24.4,29.79,ENE,57,3.1,3.1,36,0.00,,---,0.00,VWS V14.01,2013-03-02 23:06:00,
2013-03-02 16:11:00,50.0,24.1,29.79,SSE,160,0.0,0.0,36,0.00,,---,0.00,VWS V14.01,2013-03-02 23:11:00,
2013-03-02 16:16:00,48.2,23.2,29.79,SSE,147,4.9,7.6,37,0.00,,---,0.00,VWS V14.01,2013-03-02 23:16:00,
2013-03-02 16:21:00,47.8,23.5,29.76,SE,134,5.8,5.8,38,0.00,,---,0.00,VWS V14.01,2013-03-02 23:21:00,
2013-03-02 16:26:00,47.8,24.1,29.76,ESE,109,5.8,5.8,39,0.00,,---,0.00,VWS V14.01,2013-03-02 23:26:00,
2013-03-02 16:31:00,48.0,24.3,29.76,East,100,3.6,3.6,39,0.00,,---,0.00,VWS V14.01,2013-03-02 23:31:00,
2013-03-02 16:36:00,48.0,24.9,29.79,East,96,0.0,5.8,40,0.00,,---,0.00,VWS V14.01,2013-03-02 23:36:00,
2013-03-02 16:41:00,47.8,24.7,29.79,East,84,5.8,6.3,40,0.00,,---,0.00,VWS V14.01,2013-03-02 23:41:00,
2013-03-02 16:46:00,47.7,24.5,29.79,SE,128,2.7,6.7,40,0.00,,---,0.00,VWS V14.01,2013-03-02 23:46:00,
2013-03-02 16:51:00,47.3,24.2,29.76,SE,126,2.2,3.1,40,0.00,,---,0.00,VWS V14.01,2013-03-02 23:51:00,
2013-03-02 16:56:00,46.9,23.9,29.76,ESE,119,4.0,4.0,40,0.00,,---,0.00,VWS V14.01,2013-03-02 23:56:00,
2013-03-02 17:01:00,46.9,23.9,29.76,SSE,156,5.8,5.8,40,0.00,,---,0.00,VWS V14.01,2013-03-03 00:01:00,
2013-03-02 17:06:00,46.8,23.7,29.76,SE,136,2.7,5.8,40,0.00,,---,0.00,VWS V14.01,2013-03-03 00:06:00,
2013-03-02 17:11:00,46.8,23.7,29.76,ESE,116,6.3,6.3,40,0.00,,---,0.00,VWS V14.01,2013-03-03 00:11:00,
2013-03-02 17:16:00,46.8,23.7,29.76,ESE,110,2.2,3.6,40,0.00,,---,0.00,VWS V14.01,2013-03-03 00:16:00,
2013-03-02 17:21:00,46.6,23.6,29.76,ESE,119,2.7,4.0,40,0.00,,---,0.00,VWS V14.01,2013-03-03 00:21:00,
2013-03-02 17:26:00,46.6,23.6,29.76,ESE,119,0.0,0.0,40,0.00,,---,0.00,VWS V14.01,2013-03-03 00:26:00,
2013-03-02 17:31:00,46.6,23.6,29.76,ESE,118,0.0,3.1,40,0.00,,---,0.00,VWS V14.01,2013-03-03 00:31:00,
2013-03-02 17:36:00,46.6,23.6,29.76,ENE,77,0.0,0.0,40,0.00,,---,0.00,VWS V14.01,2013-03-03 00:36:00,
2013-03-02 17:41:00,46.6,23.6,29.76,ENE,77,0.0,0.0,40,0.00,,---,0.00,VWS V14.01,2013-03-03 00:41:00,
2013-03-02 17:46:00,46.4,23.4,29.76,ENE,77,0.0,0.0,40,0.00,,---,0.00,VWS V14.01,2013-03-03 00:46:00,
2013-03-02 17:51:00,46.4,23.4,29.76,ENE,77,0.0,0.0,40,0.00,,---,0.00,VWS V14.01,2013-03-03 00:51:00,
2013-03-02 17:56:00,46.0,23.1,29.76,ENE,77,0.0,0.0,40,0.00,,---,0.00,VWS V14.01,2013-03-03 00:56:00,
2013-03-02 18:01:00,45.9,22.9,29.76,ENE,77,0.0,0.0,40,0.00,,---,0.00,VWS V14.01,2013-03-03 01:01:00,
2013-03-02 18:06:00,45.5,23.2,29.76,ENE,77,0.0,0.0,41,0.00,,---,0.00,VWS V14.01,2013-03-03 01:06:00,
2013-03-02 18:11:00,45.3,23.0,29.76,ENE,77,0.0,0.0,41,0.00,,---,0.00,VWS V14.01,2013-03-03 01:11:00,
2013-03-02 18:16:00,45.1,22.9,29.76,East,83,0.0,0.0,41,0.00,,---,0.00,VWS V14.01,2013-03-03 01:16:00,
2013-03-02 18:21:00,44.6,22.9,29.76,East,83,0.0,0.0,42,0.00,,---,0.00,VWS V14.01,2013-03-03 01:21:00,
2013-03-02 18:26:00,44.2,23.7,29.76,East,83,0.0,0.0,44,0.00,,---,0.00,VWS V14.01,2013-03-03 01:26:00,
2013-03-02 18:31:00,44.1,23.6,29.76,East,83,0.0,0.0,44,0.00,,---,0.00,VWS V14.01,2013-03-03 01:31:00,
2013-03-02 18:36:00,43.7,23.2,29.73,East,83,0.0,0.0,44,0.00,,---,0.00,VWS V14.01,2013-03-03 01:36:00,
2013-03-02 18:41:00,43.5,23.1,29.73,East,83,0.0,0.0,44,0.00,,---,0.00,VWS V14.01,2013-03-03 01:41:00,
2013-03-02 18:46:00,43.3,22.9,29.73,East,83,0.0,0.0,44,0.00,,---,0.00,VWS V14.01,2013-03-03 01:46:00,
2013-03-02 18:51:00,43.0,23.6,29.73,East,83,0.0,0.0,46,0.00,,---,0.00,VWS V14.01,2013-03-03 01:51:00,
2013-03-02 18:56:00,42.6,23.3,29.73,East,83,0.0,0.0,46,0.00,,---,0.00,VWS V14.01,2013-03-03 01:56:00,
2013-03-02 19:01:00,42.3,24.0,29.73,East,83,0.0,0.0,48,0.00,,---,0.00,VWS V14.01,2013-03-03 02:01:00,
2013-03-02 19:06:00,42.3,23.5,29.73,East,83,0.0,0.0,47,0.00,,---,0.00,VWS V14.01,2013-03-03 02:06:00,
2013-03-02 19:11:00,42.1,23.3,29.73,East,83,0.0,0.0,47,0.00,,---,0.00,VWS V14.01,2013-03-03 02:11:00,
2013-03-02 19:16:00,42.1,23.8,29.73,East,83,0.0,0.0,48,0.00,,---,0.00,VWS V14.01,2013-03-03 02:16:00,
2013-03-02 19:21:00,41.9,23.7,29.73,East,83,0.0,0.0,48,0.00,,---,0.00,VWS V14.01,2013-03-03 02:21:00,
2013-03-02 19:26:00,41.7,23.5,29.73,East,90,0.0,0.0,48,0.00,,---,0.00,VWS V14.01,2013-03-03 02:26:00,
2013-03-02 19:31:00,41.5,23.8,29.73,South,186,0.0,0.0,49,0.00,,---,0.00,VWS V14.01,2013-03-03 02:31:00,
2013-03-02 19:36:00,41.2,24.0,29.73,West,279,0.0,0.0,50,0.00,,---,0.00,VWS V14.01,2013-03-03 02:36:00,
2013-03-02 19:41:00,41.0,23.8,29.73,WSW,240,3.1,4.0,50,0.00,,---,0.00,VWS V14.01,2013-03-03 02:41:00,
2013-03-02 19:46:00,41.0,23.8,29.73,WSW,252,0.0,0.0,50,0.00,,---,0.00,VWS V14.01,2013-03-03 02:46:00,
2013-03-02 19:51:00,40.8,24.1,29.73,West,272,2.7,4.0,51,0.00,,---,0.00,VWS V14.01,2013-03-03 02:51:00,
2013-03-02 19:56:00,41.0,23.8,29.73,West,268,0.0,3.1,50,0.00,,---,0.00,VWS V14.01,2013-03-03 02:56:00,
2013-03-02 20:01:00,41.0,23.8,29.73,West,264,0.0,0.0,50,0.00,,---,0.00,VWS V14.01,2013-03-03 03:01:00,
2013-03-02 20:06:00,41.0,23.3,29.73,West,279,0.0,0.0,49,0.00,,---,0.00,VWS V14.01,2013-03-03 03:06:00,
2013-03-02 20:11:00,40.8,23.6,29.73,West,262,2.2,5.4,50,0.00,,---,0.00,VWS V14.01,2013-03-03 03:11:00,
2013-03-02 20:16:00,40.6,23.5,29.73,West,265,4.0,4.0,50,0.00,,---,0.00,VWS V14.01,2013-03-03 03:16:00,
2013-03-02 20:21:00,40.5,23.3,29.70,West,273,3.6,3.6,50,0.00,,---,0.00,VWS V14.01,2013-03-03 03:21:00,
2013-03-02 20:26:00,40.3,23.1,29.70,West,266,4.0,4.0,50,0.00,,---,0.00,VWS V14.01,2013-03-03 03:26:00,
2013-03-02 20:31:00,40.1,23.0,29.70,West,262,0.0,0.0,50,0.00,,---,0.00,VWS V14.01,2013-03-03 03:31:00,
2013-03-02 20:36:00,39.9,23.3,29.70,West,269,2.7,2.7,51,0.00,,---,0.00,VWS V14.01,2013-03-03 03:36:00,
2013-03-02 20:41:00,39.7,22.6,29.70,West,259,0.0,3.1,50,0.00,,---,0.00,VWS V14.01,2013-03-03 03:41:00,
2013-03-02 20:46:00,39.7,22.6,29.70,West,259,0.0,0.0,50,0.00,,---,0.00,VWS V14.01,2013-03-03 03:46:00,
2013-03-02 20:51:00,39.4,22.3,29.67,West,259,0.0,0.0,50,0.00,,---,0.00,VWS V14.01,2013-03-03 03:51:00,
2013-03-02 20:56:00,39.0,22.4,29.67,WSW,258,0.0,0.0,51,0.00,,---,0.00,VWS V14.01,2013-03-03 03:56:00,
2013-03-02 21:01:00,39.2,22.6,29.67,West,259,0.0,0.0,51,0.00,,---,0.00,VWS V14.01,2013-03-03 04:01:00,
2013-03-02 21:06:00,39.2,22.1,29.70,West,259,0.0,0.0,50,0.00,,---,0.00,VWS V14.01,2013-03-03 04:06:00,
2013-03-02 21:11:00,38.8,22.3,29.70,West,259,0.0,0.0,51,0.00,,---,0.00,VWS V14.01,2013-03-03 04:11:00,
2013-03-02 21:16:00,38.5,21.9,29.70,West,259,0.0,0.0,51,0.00,,---,0.00,VWS V14.01,2013-03-03 04:16:00,
2013-03-02 21:21:00,38.1,22.1,29.67,West,260,0.0,0.0,52,0.00,,---,0.00,VWS V14.01,2013-03-03 04:21:00,
2013-03-02 21:26:00,37.8,22.2,29.67,SW,220,0.0,0.0,53,0.00,,---,0.00,VWS V14.01,2013-03-03 04:26:00,
2013-03-02 21:31:00,37.9,22.4,29.67,SW,215,0.0,0.0,53,0.00,,---,0.00,VWS V14.01,2013-03-03 04:31:00,
2013-03-02 21:36:00,37.6,22.0,29.67,SW,215,0.0,0.0,53,0.00,,---,0.00,VWS V14.01,2013-03-03 04:36:00,
2013-03-02 21:41:00,37.8,22.2,29.67,SW,215,0.0,0.0,53,0.00,,---,0.00,VWS V14.01,2013-03-03 04:41:00,
2013-03-02 21:46:00,37.8,22.2,29.67,SW,215,0.0,0.0,53,0.00,,---,0.00,VWS V14.01,2013-03-03 04:46:00,
2013-03-02 21:51:00,37.6,22.0,29.67,SW,215,0.0,0.0,53,0.00,,---,0.00,VWS V14.01,2013-03-03 04:51:00,
2013-03-02 21:56:00,37.2,21.7,29.67,SW,215,0.0,0.0,53,0.00,,---,0.00,VWS V14.01,2013-03-03 04:56:00,
2013-03-02 22:00:00,36.9,21.3,29.67,SW,215,0.0,0.0,53,0.00,,---,0.00,VWS V14.01,2013-03-03 05:00:00,
2013-03-02 22:05:00,36.5,21.9,29.67,SW,215,0.0,0.0,55,0.00,,---,0.00,VWS V14.01,2013-03-03 05:05:00,
2013-03-02 22:10:00,36.0,21.8,29.67,SW,215,0.0,0.0,56,0.00,,---,0.00,VWS V14.01,2013-03-03 05:10:00,
2013-03-02 22:15:00,35.8,22.9,29.67,SW,215,0.0,0.0,59,0.00,,---,0.00,VWS V14.01,2013-03-03 05:15:00,
2013-03-02 22:20:00,35.8,23.3,29.67,SW,215,0.0,0.0,60,0.00,,---,0.00,VWS V14.01,2013-03-03 05:20:00,
2013-03-02 22:25:00,35.6,22.7,29.67,WSW,251,0.0,0.0,59,0.00,,---,0.00,VWS V14.01,2013-03-03 05:25:00,
2013-03-02 22:30:00,35.8,23.3,29.67,NW,320,0.0,0.0,60,0.00,,---,0.00,VWS V14.01,2013-03-03 05:30:00,
2013-03-02 22:35:00,35.6,23.5,29.64,South,175,0.0,0.0,61,0.00,,---,0.00,VWS V14.01,2013-03-03 05:35:00,
2013-03-02 22:40:00,35.4,23.7,29.64,South,175,0.0,0.0,62,0.00,,---,0.00,VWS V14.01,2013-03-03 05:40:00,
2013-03-02 22:45:00,35.2,23.5,29.64,South,175,0.0,0.0,62,0.00,,---,0.00,VWS V14.01,2013-03-03 05:45:00,
2013-03-02 22:50:00,35.4,23.7,29.64,NW,320,2.2,2.7,62,0.00,,---,0.00,VWS V14.01,2013-03-03 05:50:00,
2013-03-02 22:55:00,35.8,24.0,29.64,NW,323,0.0,0.0,62,0.00,,---,0.00,VWS V14.01,2013-03-03 05:55:00,
2013-03-02 23:00:00,35.6,23.5,29.64,NW,323,0.0,0.0,61,0.00,,---,0.00,VWS V14.01,2013-03-03 06:00:00,
2013-03-02 23:05:00,35.6,23.5,29.64,NW,323,0.0,0.0,61,0.00,,---,0.00,VWS V14.01,2013-03-03 06:05:00,
2013-03-02 23:10:00,35.8,23.7,29.64,NW,323,0.0,0.0,61,0.00,,---,0.00,VWS V14.01,2013-03-03 06:10:00,
2013-03-02 23:15:00,36.1,23.6,29.64,NW,323,0.0,0.0,60,0.00,,---,0.00,VWS V14.01,2013-03-03 06:15:00,
2013-03-02 23:20:00,36.1,23.6,29.64,NW,322,0.0,0.0,60,0.00,,---,0.00,VWS V14.01,2013-03-03 06:20:00,
2013-03-02 23:25:00,36.5,23.5,29.64,NW,319,0.0,0.0,59,0.00,,---,0.00,VWS V14.01,2013-03-03 06:25:00,
2013-03-02 23:30:00,36.7,23.3,29.64,NW,319,0.0,0.0,58,0.00,,---,0.00,VWS V14.01,2013-03-03 06:30:00,
2013-03-02 23:35:00,37.0,23.2,29.64,NE,36,0.0,3.1,57,0.00,,---,0.00,VWS V14.01,2013-03-03 06:35:00,
2013-03-02 23:40:00,37.4,23.1,29.64,NNE,30,0.0,0.0,56,0.00,,---,0.00,VWS V14.01,2013-03-03 06:40:00,
2013-03-02 23:45:00,38.5,24.2,29.64,WNW,294,4.9,4.9,56,0.00,,---,0.00,VWS V14.01,2013-03-03 06:45:00,
2013-03-02 23:50:00,38.1,23.0,29.64,NW,321,0.0,0.0,54,0.00,,---,0.00,VWS V14.01,2013-03-03 06:50:00,
2013-03-02 23:55:00,37.8,22.6,29.64,South,170,0.0,0.0,54,0.00,,---,0.00,VWS V14.01,2013-03-03 06:55:00,